• In Hungary
  • List of Countries
  • For 7 days
  • Water Temperature
  • Satellite Maps
  • Weather Map
  • News
  • Weather Widgets
  • user-avatar
    Login

    Hourly Weather Lidzhe

    Today, 18 July, Wednesday

    Time Temperature Precipitation Wind Pressure Humidity
    00:00 +21°C° 0 mm 1 mps 696 mmHg 72%
    01:00 +21°C° 0 mm 1 mps 696 mmHg 70%
    02:00 +20°C° 0 mm 1 mps 696 mmHg 67%
    03:00 +20°C° 0 mm 1 mps 696 mmHg 64%
    04:00 +21°C° 0 mm 1 mps 696 mmHg 63%
    05:00 +22°C° 0 mm 1 mps 697 mmHg 61%
    06:00 +23°C° 0 mm 1 mps 697 mmHg 60%
    07:00 +24°C° 0 mm 2 mps 697 mmHg 57%
    08:00 +26°C° 0 mm 2 mps 697 mmHg 54%
    09:00 +28°C° 0 mm 2 mps 697 mmHg 51%
    10:00 +29°C° 0 mm 3 mps 697 mmHg 50%
    11:00 +29°C° 0 mm 4 mps 697 mmHg 48%
    12:00 +30°C° 0 mm 4 mps 697 mmHg 47%
    13:00 +30°C° 0 mm 4 mps 696 mmHg 49%
    14:00 +30°C° 0 mm 4 mps 696 mmHg 51%
    15:00 +30°C° 0 mm 4 mps 696 mmHg 52%
    16:00 +29°C° 0 mm 4 mps 696 mmHg 57%
    17:00 +28°C° 0 mm 3 mps 695 mmHg 62%
    18:00 +27°C° 0 mm 3 mps 695 mmHg 67%
    19:00 +26°C° 0 mm 2 mps 695 mmHg 68%
    20:00 +24°C° 0 mm 2 mps 695 mmHg 69%
    21:00 +23°C° 0 mm 2 mps 695 mmHg 70%
    22:00 +23°C° 0 mm 2 mps 695 mmHg 65%
    23:00 +23°C° 0 mm 2 mps 695 mmHg 59%

    Tomorrow, 19 July, Thursday

    Time Temperature Precipitation Wind Pressure Humidity
    00:00 +23°C° 0 mm 1 mps 695 mmHg 54%
    01:00 +23°C° 0 mm 1 mps 695 mmHg 51%
    02:00 +23°C° 0 mm 1 mps 695 mmHg 48%
    03:00 +22°C° 0 mm 1 mps 695 mmHg 45%
    04:00 +23°C° 0 mm 1 mps 695 mmHg 46%
    05:00 +24°C° 0 mm 1 mps 695 mmHg 48%
    06:00 +25°C° 0 mm 1 mps 695 mmHg 49%
    07:00 +27°C° 0 mm 2 mps 695 mmHg 46%
    08:00 +29°C° 0 mm 2 mps 695 mmHg 44%
    09:00 +31°C° 0 mm 2 mps 695 mmHg 42%
    10:00 +32°C° 0 mm 2 mps 695 mmHg 43%
    11:00 +33°C° 0 mm 3 mps 695 mmHg 43%
    12:00 +34°C° 0 mm 3 mps 695 mmHg 44%
    13:00 +34°C° 0 mm 3 mps 694 mmHg 45%
    14:00 +34°C° 0 mm 3 mps 694 mmHg 46%
    15:00 +34°C° 0 mm 3 mps 694 mmHg 47%
    16:00 +33°C° 0 mm 3 mps 694 mmHg 52%
    17:00 +31°C° 0 mm 2 mps 694 mmHg 57%
    18:00 +30°C° 0 mm 2 mps 694 mmHg 61%
    19:00 +28°C° 0 mm 2 mps 694 mmHg 65%
    20:00 +27°C° 0 mm 2 mps 695 mmHg 70%
    21:00 +25°C° 0 mm 2 mps 695 mmHg 74%
    22:00 +25°C° 0 mm 2 mps 695 mmHg 71%
    23:00 +25°C° 0 mm 2 mps 695 mmHg 68%

    Day after tomorrow, 20 July, Friday

    Time Temperature Precipitation Wind Pressure Humidity
    00:00 +25°C° 0 mm 2 mps 695 mmHg 65%
    01:00 +25°C° 0 mm 2 mps 695 mmHg 62%
    02:00 +24°C° 0 mm 3 mps 695 mmHg 59%
    03:00 +24°C° 0 mm 3 mps 694 mmHg 56%
    04:00 +25°C° 0 mm 3 mps 695 mmHg 55%
    05:00 +26°C° 0 mm 2 mps 695 mmHg 54%
    06:00 +27°C° 0 mm 2 mps 695 mmHg 52%
    07:00 +28°C° 0 mm 3 mps 695 mmHg 50%
    08:00 +30°C° 0 mm 3 mps 696 mmHg 47%
    09:00 +33°C° 0 mm 3 mps 696 mmHg 44%
    10:00 +33°C° 0 mm 4 mps 696 mmHg 44%
    11:00 +34°C° 0 mm 4 mps 696 mmHg 45%
    12:00 +34°C° 0 mm 4 mps 696 mmHg 45%
    13:00 +34°C° 0 mm 4 mps 695 mmHg 46%
    14:00 +34°C° 0 mm 4 mps 695 mmHg 47%
    15:00 +34°C° 0 mm 3 mps 695 mmHg 49%
    16:00 +33°C° 0.1 mm 3 mps 695 mmHg 53%
    17:00 +31°C° 0.1 mm 2 mps 694 mmHg 56%
    18:00 +30°C° 0.1 mm 1 mps 694 mmHg 60%
    19:00 +28°C° 0 mm 1 mps 694 mmHg 64%
    20:00 +27°C° 0 mm 2 mps 695 mmHg 68%
    21:00 +25°C° 0 mm 2 mps 695 mmHg 72%
    22:00 +25°C° 0 mm 2 mps 694 mmHg 70%
    23:00 +25°C° 0 mm 2 mps 694 mmHg 69%

    21 July, Saturday

    Time Temperature Precipitation Wind Pressure Humidity
    00:00 +25°C° 0 mm 2 mps 694 mmHg 68%
    01:00 +25°C° 0 mm 2 mps 694 mmHg 66%
    02:00 +25°C° 0 mm 2 mps 694 mmHg 65%
    03:00 +25°C° 0 mm 2 mps 694 mmHg 63%
    04:00 +25°C° 0 mm 2 mps 694 mmHg 63%
    05:00 +26°C° 0 mm 2 mps 695 mmHg 62%
    06:00 +27°C° 0 mm 2 mps 695 mmHg 62%
    07:00 +29°C° 0 mm 2 mps 695 mmHg 56%
    08:00 +30°C° 0 mm 3 mps 695 mmHg 51%
    09:00 +33°C° 0 mm 3 mps 695 mmHg 45%
    10:00 +33°C° 0 mm 4 mps 695 mmHg 44%
    11:00 +34°C° 0 mm 4 mps 695 mmHg 42%
    12:00 +35°C° 0 mm 5 mps 695 mmHg 41%
    13:00 +35°C° 0.2 mm 5 mps 695 mmHg 43%
    14:00 +34°C° 0.2 mm 5 mps 695 mmHg 44%
    15:00 +34°C° 0.2 mm 5 mps 695 mmHg 45%
    16:00 +33°C° 0.1 mm 4 mps 695 mmHg 48%
    17:00 +31°C° 0.1 mm 3 mps 695 mmHg 51%
    18:00 +30°C° 0.1 mm 2 mps 695 mmHg 54%
    19:00 +28°C° 0 mm 2 mps 695 mmHg 58%
    20:00 +27°C° 0 mm 2 mps 695 mmHg 63%
    21:00 +25°C° 0 mm 2 mps 695 mmHg 67%
    22:00 +25°C° 0 mm 3 mps 695 mmHg 67%
    23:00 +25°C° 0 mm 3 mps 695 mmHg 66%

    22 July, Sunday

    Time Temperature Precipitation Wind Pressure Humidity
    00:00 +25°C° 0 mm 3 mps 695 mmHg 66%
    01:00 +25°C° 0 mm 3 mps 695 mmHg 65%
    02:00 +24°C° 0 mm 3 mps 695 mmHg 64%
    03:00 +24°C° 0 mm 3 mps 695 mmHg 62%
    04:00 +25°C° 0 mm 3 mps 695 mmHg 61%
    05:00 +26°C° 0 mm 3 mps 695 mmHg 60%
    06:00 +27°C° 0 mm 3 mps 696 mmHg 59%
    07:00 +28°C° 0 mm 4 mps 696 mmHg 56%
    08:00 +29°C° 0 mm 5 mps 696 mmHg 53%
    09:00 +30°C° 0 mm 6 mps 696 mmHg 50%
    10:00 +32°C° 0.1 mm 5 mps 696 mmHg 50%
    11:00 +32°C° 0.1 mm 5 mps 696 mmHg 49%
    12:00 +33°C° 0.1 mm 5 mps 696 mmHg 49%
    13:00 +33°C° 0.1 mm 4 mps 696 mmHg 49%
    14:00 +33°C° 0.1 mm 4 mps 695 mmHg 49%
    15:00 +33°C° 0.1 mm 4 mps 695 mmHg 49%
    16:00 +31°C° 0.1 mm 3 mps 695 mmHg 53%
    17:00 +30°C° 0.1 mm 3 mps 695 mmHg 57%
    18:00 +29°C° 0.1 mm 2 mps 695 mmHg 61%
    19:00 +27°C° 0.2 mm 2 mps 695 mmHg 66%
    20:00 +26°C° 0.2 mm 2 mps 695 mmHg 70%
    21:00 +24°C° 0.2 mm 2 mps 695 mmHg 75%
    22:00 +24°C° 0.1 mm 2 mps 695 mmHg 73%
    23:00 +24°C° 0.1 mm 2 mps 695 mmHg 72%

    23 July, Monday

    Time Temperature Precipitation Wind Pressure Humidity
    00:00 +24°C° 0.1 mm 2 mps 695 mmHg 70%
    01:00 +24°C° 0 mm 2 mps 695 mmHg 69%
    02:00 +24°C° 0 mm 2 mps 695 mmHg 67%
    03:00 +24°C° 0 mm 3 mps 695 mmHg 65%
    04:00 +25°C° 0 mm 2 mps 695 mmHg 64%
    05:00 +25°C° 0 mm 2 mps 696 mmHg 63%
    06:00 +26°C° 0 mm 2 mps 696 mmHg 61%
    07:00 +28°C° 0 mm 2 mps 696 mmHg 57%
    08:00 +29°C° 0 mm 2 mps 696 mmHg 53%
    09:00 +31°C° 0 mm 3 mps 696 mmHg 48%
    10:00 +31°C° 0.1 mm 3 mps 696 mmHg 47%
    11:00 +33°C° 0.1 mm 3 mps 696 mmHg 46%
    12:00 +34°C° 0.1 mm 4 mps 696 mmHg 45%
    13:00 +34°C° 0.1 mm 4 mps 696 mmHg 45%
    14:00 +33°C° 0.1 mm 4 mps 696 mmHg 46%
    15:00 +33°C° 0.1 mm 4 mps 695 mmHg 46%
    16:00 +31°C° 0 mm 3 mps 695 mmHg 49%
    17:00 +31°C° 0 mm 2 mps 695 mmHg 52%
    18:00 +30°C° 0 mm 2 mps 695 mmHg 55%
    19:00 +28°C° 0 mm 2 mps 695 mmHg 60%
    20:00 +26°C° 0 mm 1 mps 696 mmHg 64%
    21:00 +25°C° 0 mm 1 mps 696 mmHg 68%
    22:00 +25°C° 0 mm 1 mps 696 mmHg 66%
    23:00 +25°C° 0 mm 1 mps 696 mmHg 63%
    Show more